Location: Fornova de Taro
(44.7000°N, 10.1000°E)
Time: 13:20:08
(UTC+00:00)

USA 229 DEB - Visible Passes

Search period start: 26 September 2022 00:00
Search period end: 06 October 2022 00:00
Orbit: 929 x 1283 km, 63.4° (Epoch: 21 September)

Date Brightness Start Highest point End Pass type
(mag) Time Alt. Az. Time Alt. Az. Time Alt. Az.
26 Sep 3.9 18:31:39 10° NW 18:39:03 77° NE 18:44:55 20° SE visible
26 Sep 5.5 20:23:26 10° WNW 20:29:31 27° WSW 20:32:24 22° SW visible
27 Sep 4.2 17:46:52 10° NNW 17:54:04 56° NE 18:01:45 10° ESE visible
27 Sep 4.9 19:38:03 10° NW 19:44:58 41° WSW 19:49:37 21° S visible
28 Sep 4.4 18:52:59 10° NW 19:00:18 61° WSW 19:07:00 15° SSE visible
28 Sep 6.3 20:47:14 10° W 20:50:02 12° WSW 20:52:52 10° SW visible
29 Sep 4.0 18:08:03 10° NW 18:15:30 87° SW 18:23:25 10° SSE visible
29 Sep 5.9 20:00:24 10° WNW 20:05:41 21° WSW 20:11:10 10° SSW visible
30 Sep 4.0 17:23:14 10° NW 17:30:34 68° NE 17:38:26 10° SE visible
30 Sep 5.4 19:14:44 10° NW 19:21:13 32° WSW 19:27:59 10° S visible
01 Oct 4.8 18:29:30 10° NW 18:36:37 49° WSW 18:44:07 10° S visible
02 Oct 4.3 17:44:29 10° NW 17:51:54 71° WSW 17:59:45 10° SSE visible
02 Oct 6.4 19:37:43 10° WNW 19:41:49 15° WSW 19:46:01 10° SW visible
03 Oct 5.9 18:51:33 10° WNW 18:57:25 25° WSW 19:03:31 10° SSW visible
04 Oct 5.4 18:06:07 10° NW 18:12:54 38° WSW 18:20:02 10° S visible
05 Oct 4.8 17:20:59 10° NW 17:28:15 57° WSW 17:35:57 10° SSE visible
05 Oct 6.7 19:16:08 10° W 19:17:54 11° WSW 19:19:40 10° WSW visible
